This demonstration page uses our WeatherBlox Daily Observations layout. Learn more.

Left ArrowRight Arrow

38.88101, -77.10428

Hourly Observations for December 19, 2019

Temp ( °F °C ) Dew Point ( °F °C ) Humidity (%) Winds ( mph kmh ) Pressure ( in mb ) Visibility ( mi km ) Precip ( " mm )
12:52 am 00:52 Clear 26 -3.3 5 -15 40 40 NNW 16 26 30.27 1025 10 16.0934 0 0
1:52 am 01:52 Clear 25 -3.9 4 -15.6 40 40 NNW 16 26 30.31 1027 10 16.0934 0 0
2:52 am 02:52 Clear 25 -3.9 5 -15 42 42 NNW 18 30 30.33 1027 10 16.0934 0 0
3:52 am 03:52 Clear 24 -4.4 6 -14.4 46 46 NW 14 22 30.34 1027 10 16.0934 0 0
4:52 am 04:52 Mostly Clear 24 -4.4 7 -13.9 48 48 NW 15 24 30.37 1029 10 16.0934 0 0
5:52 am 05:52 Mostly Clear 23 -5 10 -12.2 57 57 NW 8 13 30.4 1030 10 16.0934 0 0
6:52 am 06:52 Mostly Clear 23 -5 9 -12.8 55 55 NNW 9 15 30.44 1031 10 16.0934 0 0
7:52 am 07:52 Sunny 23 -5 8 -13.3 53 53 NW 13 20 30.48 1032 10 16.0934 0 0
8:52 am 08:52 Sunny 25 -3.9 8 -13.3 48 48 NNW 12 19 30.49 1033 10 16.0934 0 0
9:52 am 09:52 Sunny 27 -2.8 8 -13.3 45 45 WNW 10 17 30.51 1033 10 16.0934 0 0
10:52 am 10:52 Sunny 29 -1.7 8 -13.3 41 41 NNW 9 15 30.51 1033 10 16.0934 0 0
11:52 am 11:52 Mostly Sunny 30 -1.1 9 -12.8 41 41 WNW 13 20 30.47 1032 10 16.0934 0 0
12:52 pm 12:52 Mostly Sunny 32 0 9 -12.8 38 38 NNW 14 22 30.45 1031 10 16.0934 0 0
1:52 pm 13:52 Mostly Sunny 33 0.6 8 -13.3 35 35 NNW 9 15 30.43 1030 10 16.0934 0 0
2:52 pm 14:52 Sunny 34 1.1 9 -12.8 35 35 NNW 8 13 30.44 1031 10 16.0934 0 0
3:52 pm 15:52 Sunny 34 1.1 9 -12.8 35 35 N 6 9 30.44 1031 10 16.0934 0 0
4:52 pm 16:52 Clear 32 0 9 -12.8 38 38 N 5 7 30.45 1031 10 16.0934 0 0
5:52 pm 17:52 Clear 31 -0.6 10 -12.2 42 42 N 7 11 30.46 1031 10 16.0934 0 0
6:52 pm 18:52 Clear 32 0 10 -12.2 40 40 Calm 30.47 1032 10 16.0934 0 0
7:52 pm 19:52 Clear 32 0 15 -9.4 50 50 E 3 6 30.48 1032 10 16.0934 0 0
8:52 pm 20:52 Clear 30 -1.1 15 -9.4 54 54 S 5 7 30.49 1032 10 16.0934 0 0
9:52 pm 21:52 Clear 30 -1.1 12 -11.1 47 47 S 3 6 30.49 1033 10 16.0934 0 0
10:52 pm 22:52 Clear 28 -2.2 14 -10 56 56 SSE 5 7 30.48 1032 10 16.0934 0 0
11:52 pm 23:52 Clear 28 -2.2 16 -8.9 60 60 SSW 3 6 30.47 1032 10 16.0934 0 0

Powered by AerisWeather